Time,TemperatureF,DewpointF,PressureIn,WindDirection,WindDirectionDegrees,WindSpeedMPH,WindSpeedGustMPH,Humidity,HourlyPrecipIn,Conditions,Clouds,dailyrainin,SolarRadiationWatts/m^2,SoftwareType,DateUTC
2013-05-20 00:01:00,72.7,71.4,30.03,ESE,121,0.0,4.0,96,0.00,,,0.09,0.0,meteohub,2013-05-20 04:01:00,
2013-05-20 00:02:00,72.7,71.4,30.03,ESE,121,0.0,4.0,96,0.00,,,0.09,0.0,meteohub,2013-05-20 04:02:00,
2013-05-20 00:07:00,72.7,71.4,30.03,SE,126,0.0,5.0,96,0.00,,,0.00,0.0,meteohub,2013-05-20 04:07:00,
2013-05-20 00:12:00,72.7,71.4,30.03,SE,126,0.0,5.0,96,0.00,,,0.00,0.0,meteohub,2013-05-20 04:12:00,
2013-05-20 00:17:00,72.5,71.2,30.03,SE,126,0.0,5.0,96,0.00,,,0.00,0.0,meteohub,2013-05-20 04:17:00,
2013-05-20 00:22:00,72.5,71.2,30.03,SE,140,0.0,3.0,96,0.00,,,0.00,0.0,meteohub,2013-05-20 04:22:00,
2013-05-20 00:27:00,72.5,71.1,30.03,SE,134,0.0,3.0,95,0.00,,,0.00,0.0,meteohub,2013-05-20 04:27:00,
2013-05-20 00:32:00,72.3,70.9,30.03,East,89,0.0,3.0,95,0.00,,,0.00,0.0,meteohub,2013-05-20 04:32:00,
2013-05-20 00:37:00,72.3,70.9,30.03,East,90,0.0,5.0,95,0.00,,,0.00,0.0,meteohub,2013-05-20 04:37:00,
2013-05-20 00:42:00,72.3,70.9,30.03,NE,50,0.0,5.0,95,0.00,,,0.00,0.0,meteohub,2013-05-20 04:42:00,
2013-05-20 00:47:00,72.3,71.1,30.03,NE,51,0.0,5.0,96,0.00,,,0.00,0.0,meteohub,2013-05-20 04:47:00,
2013-05-20 00:52:00,72.1,70.9,30.03,NE,51,0.0,2.0,96,0.00,,,0.00,0.0,meteohub,2013-05-20 04:52:00,
2013-05-20 00:57:00,72.1,70.7,30.02,NE,51,0.0,2.0,95,0.00,,,0.00,0.0,meteohub,2013-05-20 04:57:00,
2013-05-20 01:02:00,72.1,70.9,30.02,NE,51,0.0,3.0,96,0.00,,,0.00,0.0,meteohub,2013-05-20 05:02:00,
2013-05-20 01:07:00,72.1,70.9,30.02,NE,51,0.0,3.0,96,0.00,,,0.00,0.0,meteohub,2013-05-20 05:07:00,
2013-05-20 01:12:00,72.0,70.7,30.01,NE,51,0.0,3.0,96,0.00,,,0.00,0.0,meteohub,2013-05-20 05:12:00,
2013-05-20 01:17:00,72.0,70.7,30.01,SSW,200,0.0,1.0,96,0.00,,,0.00,0.0,meteohub,2013-05-20 05:17:00,
2013-05-20 01:22:00,72.0,70.7,30.01,SE,146,0.0,6.0,96,0.00,,,0.00,0.0,meteohub,2013-05-20 05:22:00,
2013-05-20 01:27:00,72.0,70.7,30.01,SE,146,0.0,6.0,96,0.00,,,0.00,0.0,meteohub,2013-05-20 05:27:00,
2013-05-20 01:32:00,72.0,70.7,30.01,SE,146,0.0,5.0,96,0.00,,,0.00,0.0,meteohub,2013-05-20 05:32:00,
2013-05-20 01:37:00,72.0,70.7,30.01,SSE,152,1.0,2.0,96,0.00,,,0.00,0.0,meteohub,2013-05-20 05:37:00,
2013-05-20 01:42:00,72.1,70.9,30.01,SSE,153,0.0,4.0,96,0.00,,,0.00,0.0,meteohub,2013-05-20 05:42:00,
2013-05-20 01:47:00,72.0,70.7,30.01,SSE,152,0.0,4.0,96,0.00,,,0.00,0.0,meteohub,2013-05-20 05:47:00,
2013-05-20 01:52:00,72.0,70.7,30.00,SSE,155,0.0,4.0,96,0.00,,,0.00,0.0,meteohub,2013-05-20 05:52:00,
2013-05-20 01:57:00,72.0,70.7,30.00,SE,140,0.0,4.0,96,0.00,,,0.00,0.0,meteohub,2013-05-20 05:57:00,
2013-05-20 02:02:00,72.0,70.5,29.99,SSE,152,0.0,4.0,95,0.00,,,0.00,0.0,meteohub,2013-05-20 06:02:00,
2013-05-20 02:07:00,72.0,70.5,29.99,East,92,0.0,5.0,95,0.00,,,0.00,0.0,meteohub,2013-05-20 06:07:00,
2013-05-20 02:12:00,72.0,70.5,29.99,SE,136,0.0,5.0,95,0.00,,,0.00,0.0,meteohub,2013-05-20 06:12:00,
2013-05-20 02:17:00,72.0,70.5,29.99,SSE,147,0.0,3.0,95,0.00,,,0.00,0.0,meteohub,2013-05-20 06:17:00,
2013-05-20 02:22:00,72.0,70.5,29.99,SSW,195,1.0,3.0,95,0.00,,,0.00,0.0,meteohub,2013-05-20 06:22:00,
2013-05-20 02:28:00,72.0,70.5,29.99,South,172,0.0,3.0,95,0.00,,,0.00,0.0,meteohub,2013-05-20 06:28:00,
2013-05-20 02:33:00,72.0,70.5,29.99,SE,126,0.0,3.0,95,0.00,,,0.00,0.0,meteohub,2013-05-20 06:33:00,
2013-05-20 02:38:00,72.1,70.7,29.99,SE,129,2.0,3.0,95,0.00,,,0.00,0.0,meteohub,2013-05-20 06:38:00,
2013-05-20 02:43:00,72.1,70.7,29.99,SSE,160,0.0,5.0,95,0.00,,,0.00,0.0,meteohub,2013-05-20 06:43:00,
2013-05-20 02:48:00,72.3,70.9,29.99,South,171,0.0,9.0,95,0.00,,,0.00,0.0,meteohub,2013-05-20 06:48:00,
2013-05-20 02:53:00,72.3,70.5,29.99,ESE,121,1.0,9.0,94,0.00,,,0.00,0.0,meteohub,2013-05-20 06:53:00,
2013-05-20 02:58:00,72.3,70.5,29.99,South,179,0.0,9.0,94,0.00,,,0.00,0.0,meteohub,2013-05-20 06:58:00,
2013-05-20 03:03:00,72.3,70.5,29.99,SE,138,2.0,5.0,94,0.00,,,0.00,0.0,meteohub,2013-05-20 07:03:00,
2013-05-20 03:08:00,72.3,70.5,29.99,SSW,192,4.0,5.0,94,0.00,,,0.00,0.0,meteohub,2013-05-20 07:08:00,
2013-05-20 03:13:00,72.3,70.5,29.99,South,174,0.0,4.0,94,0.00,,,0.00,0.0,meteohub,2013-05-20 07:13:00,
2013-05-20 03:18:00,72.1,70.3,29.99,SSE,150,0.0,5.0,94,0.00,,,0.00,0.0,meteohub,2013-05-20 07:18:00,
2013-05-20 03:23:00,72.1,70.3,29.99,SSE,160,4.0,5.0,94,0.00,,,0.00,0.0,meteohub,2013-05-20 07:23:00,
2013-05-20 03:28:00,72.1,70.3,29.99,SE,146,1.0,5.0,94,0.00,,,0.00,0.0,meteohub,2013-05-20 07:28:00,
2013-05-20 03:33:00,72.3,70.5,29.99,SSW,211,0.0,5.0,94,0.00,,,0.00,0.0,meteohub,2013-05-20 07:33:00,
2013-05-20 03:38:00,72.1,70.3,29.99,SSE,153,2.0,5.0,94,0.00,,,0.00,0.0,meteohub,2013-05-20 07:38:00,
2013-05-20 03:43:00,72.1,70.3,29.99,SSE,155,1.0,5.0,94,0.00,,,0.00,0.0,meteohub,2013-05-20 07:43:00,
2013-05-20 03:48:00,72.1,70.3,29.99,South,176,0.0,5.0,94,0.00,,,0.00,0.0,meteohub,2013-05-20 07:48:00,
2013-05-20 03:53:00,72.1,70.3,29.99,South,177,0.0,5.0,94,0.00,,,0.00,0.0,meteohub,2013-05-20 07:53:00,
2013-05-20 03:58:00,72.1,70.3,29.99,South,177,0.0,4.0,94,0.00,,,0.00,0.0,meteohub,2013-05-20 07:58:00,
2013-05-20 04:03:00,72.0,70.2,29.99,South,177,0.0,2.0,94,0.00,,,0.00,0.0,meteohub,2013-05-20 08:03:00,
2013-05-20 04:08:00,72.0,70.2,29.99,South,176,0.0,1.0,94,0.00,,,0.00,0.0,meteohub,2013-05-20 08:08:00,
2013-05-20 04:13:00,71.8,70.3,30.00,South,177,0.0,1.0,95,0.00,,,0.00,0.0,meteohub,2013-05-20 08:13:00,
2013-05-20 04:18:00,71.8,70.3,30.00,South,176,0.0,2.0,95,0.00,,,0.00,0.0,meteohub,2013-05-20 08:18:00,
2013-05-20 04:23:00,71.6,70.2,30.00,South,176,0.0,2.0,95,0.00,,,0.00,0.0,meteohub,2013-05-20 08:23:00,
2013-05-20 04:28:00,71.4,70.0,30.00,South,177,0.0,2.0,95,0.00,,,0.00,0.0,meteohub,2013-05-20 08:28:00,
2013-05-20 04:33:00,71.2,69.8,30.00,South,177,0.0,2.0,95,0.00,,,0.00,0.0,meteohub,2013-05-20 08:33:00,
2013-05-20 04:38:00,71.2,69.8,29.99,South,176,0.0,1.0,95,0.00,,,0.00,0.0,meteohub,2013-05-20 08:38:00,
2013-05-20 04:43:00,71.2,69.8,30.00,South,176,0.0,1.0,95,0.00,,,0.00,0.0,meteohub,2013-05-20 08:43:00,
2013-05-20 04:48:00,71.1,69.6,30.00,South,177,0.0,0.0,95,0.00,,,0.00,0.0,meteohub,2013-05-20 08:48:00,
2013-05-20 04:53:00,70.9,69.4,30.00,South,177,0.0,0.0,95,0.00,,,0.00,0.0,meteohub,2013-05-20 08:53:00,
2013-05-20 04:58:00,70.5,69.1,30.00,South,177,0.0,0.0,95,0.00,,,0.00,0.0,meteohub,2013-05-20 08:58:00,
2013-05-20 05:03:00,70.3,68.9,30.00,South,177,0.0,1.0,95,0.00,,,0.00,0.0,meteohub,2013-05-20 09:03:00,
2013-05-20 05:08:00,70.2,68.7,30.00,South,177,0.0,1.0,95,0.00,,,0.00,0.0,meteohub,2013-05-20 09:08:00,
2013-05-20 05:13:00,70.0,68.5,30.01,South,176,0.0,1.0,95,0.00,,,0.00,0.0,meteohub,2013-05-20 09:13:00,
2013-05-20 05:18:00,69.8,68.4,30.01,South,177,0.0,1.0,95,0.00,,,0.00,0.0,meteohub,2013-05-20 09:18:00,
2013-05-20 05:23:00,69.6,68.2,30.01,South,177,0.0,0.0,95,0.00,,,0.00,0.0,meteohub,2013-05-20 09:23:00,
2013-05-20 05:28:00,69.4,68.0,30.01,South,177,0.0,0.0,95,0.00,,,0.00,0.0,meteohub,2013-05-20 09:28:00,
2013-05-20 05:33:00,69.3,68.0,30.01,South,177,0.0,0.0,96,0.00,,,0.00,0.0,meteohub,2013-05-20 09:33:00,
2013-05-20 05:38:00,69.3,68.0,30.01,South,177,0.0,0.0,96,0.00,,,0.00,0.0,meteohub,2013-05-20 09:38:00,
2013-05-20 05:43:00,69.1,67.8,30.01,South,176,0.0,0.0,96,0.00,,,0.00,0.0,meteohub,2013-05-20 09:43:00,
2013-05-20 05:48:00,69.1,67.8,30.01,South,177,0.0,0.0,96,0.00,,,0.00,0.0,meteohub,2013-05-20 09:48:00,
2013-05-20 05:53:00,68.7,67.5,30.01,South,177,0.0,0.0,96,0.00,,,0.00,0.0,meteohub,2013-05-20 09:53:00,
2013-05-20 05:58:00,68.7,67.5,30.01,South,177,0.0,0.0,96,0.00,,,0.00,0.0,meteohub,2013-05-20 09:58:00,
2013-05-20 06:03:00,68.5,67.3,30.01,South,176,0.0,0.0,96,0.00,,,0.00,0.0,meteohub,2013-05-20 10:03:00,
2013-05-20 06:08:00,68.7,67.8,30.01,South,176,0.0,0.0,97,0.00,,,0.00,0.0,meteohub,2013-05-20 10:08:00,
2013-05-20 06:13:00,68.7,67.8,30.02,South,176,0.0,0.0,97,0.00,,,0.00,0.0,meteohub,2013-05-20 10:13:00,
2013-05-20 06:18:00,68.5,67.6,30.02,South,177,0.0,0.0,97,0.00,,,0.00,0.0,meteohub,2013-05-20 10:18:00,
2013-05-20 06:23:00,68.4,67.5,30.02,South,177,0.0,0.0,97,0.00,,,0.00,0.0,meteohub,2013-05-20 10:23:00,
2013-05-20 06:28:00,68.4,67.5,30.02,South,177,0.0,0.0,97,0.00,,,0.00,0.0,meteohub,2013-05-20 10:28:00,
2013-05-20 06:33:00,68.2,67.3,30.02,South,177,0.0,0.0,97,0.00,,,0.00,11.0,meteohub,2013-05-20 10:33:00,
2013-05-20 06:38:00,68.2,67.3,30.02,South,176,0.0,0.0,97,0.00,,,0.00,19.0,meteohub,2013-05-20 10:38:00,
2013-05-20 06:43:00,68.2,67.3,30.03,South,176,0.0,0.0,97,0.00,,,0.00,23.0,meteohub,2013-05-20 10:43:00,
2013-05-20 06:48:00,68.4,67.5,30.03,South,176,0.0,0.0,97,0.00,,,0.00,32.0,meteohub,2013-05-20 10:48:00,
2013-05-20 06:53:00,68.4,67.5,30.03,South,176,0.0,0.0,97,0.00,,,0.00,33.0,meteohub,2013-05-20 10:53:00,
2013-05-20 06:58:00,68.4,67.5,30.03,South,177,0.0,0.0,97,0.00,,,0.00,35.0,meteohub,2013-05-20 10:58:00,
2013-05-20 07:03:00,68.5,67.6,30.03,South,177,0.0,0.0,97,0.00,,,0.00,49.0,meteohub,2013-05-20 11:03:00,
2013-05-20 07:08:00,68.5,67.6,30.03,South,177,0.0,0.0,97,0.00,,,0.00,67.0,meteohub,2013-05-20 11:08:00,
2013-05-20 07:13:00,68.9,68.0,30.03,South,177,0.0,0.0,97,0.00,,,0.00,79.0,meteohub,2013-05-20 11:13:00,
2013-05-20 07:18:00,69.1,68.2,30.04,South,176,0.0,0.0,97,0.00,,,0.00,86.0,meteohub,2013-05-20 11:18:00,
2013-05-20 07:23:00,69.3,68.7,30.03,South,177,0.0,0.0,98,0.00,,,0.00,98.0,meteohub,2013-05-20 11:23:00,
2013-05-20 07:28:00,69.6,68.7,30.04,South,176,0.0,0.0,97,0.00,,,0.00,134.0,meteohub,2013-05-20 11:28:00,
2013-05-20 07:33:00,69.8,69.3,30.04,South,176,0.0,0.0,98,0.00,,,0.00,109.0,meteohub,2013-05-20 11:33:00,
2013-05-20 07:38:00,70.2,69.3,30.04,South,177,0.0,0.0,97,0.00,,,0.00,90.0,meteohub,2013-05-20 11:38:00,
2013-05-20 07:43:00,70.3,69.4,30.04,South,177,0.0,0.0,97,0.00,,,0.00,86.0,meteohub,2013-05-20 11:43:00,
2013-05-20 07:48:00,70.3,69.8,30.04,South,177,0.0,0.0,98,0.00,,,0.00,83.0,meteohub,2013-05-20 11:48:00,
2013-05-20 07:53:00,70.5,69.6,30.04,South,176,0.0,0.0,97,0.00,,,0.00,95.0,meteohub,2013-05-20 11:53:00,
2013-05-20 07:58:00,70.9,70.0,30.04,South,177,0.0,0.0,97,0.00,,,0.00,107.0,meteohub,2013-05-20 11:58:00,
2013-05-20 08:03:00,70.9,70.0,30.04,South,176,0.0,0.0,97,0.00,,,0.00,116.0,meteohub,2013-05-20 12:03:00,
2013-05-20 08:08:00,71.2,70.3,30.04,South,177,0.0,0.0,97,0.00,,,0.00,127.0,meteohub,2013-05-20 12:08:00,
2013-05-20 08:13:00,71.6,70.7,30.04,South,176,0.0,0.0,97,0.00,,,0.00,146.0,meteohub,2013-05-20 12:13:00,
2013-05-20 08:18:00,72.1,71.2,30.04,South,176,0.0,0.0,97,0.00,,,0.00,167.0,meteohub,2013-05-20 12:18:00,
2013-05-20 08:23:00,72.3,71.1,30.04,SE,146,0.0,1.0,96,0.00,,,0.00,216.0,meteohub,2013-05-20 12:23:00,
2013-05-20 08:28:00,72.9,71.4,30.05,ESE,113,0.0,4.0,95,0.00,,,0.00,192.0,meteohub,2013-05-20 12:28:00,
2013-05-20 08:33:00,73.2,71.4,30.05,ESE,113,0.0,5.0,94,0.00,,,0.00,211.0,meteohub,2013-05-20 12:33:00,
2013-05-20 08:38:00,73.6,71.4,30.05,ESE,121,0.0,5.0,93,0.00,,,0.00,221.0,meteohub,2013-05-20 12:38:00,
2013-05-20 08:43:00,73.9,71.8,30.05,SSE,165,0.0,5.0,93,0.00,,,0.00,360.0,meteohub,2013-05-20 12:43:00,
2013-05-20 08:48:00,74.7,72.1,30.05,SSE,157,0.0,4.0,92,0.00,,,0.00,352.0,meteohub,2013-05-20 12:48:00,
2013-05-20 08:53:00,75.4,72.5,30.05,SE,128,3.0,4.0,91,0.00,,,0.00,369.0,meteohub,2013-05-20 12:53:00,
2013-05-20 08:58:00,75.7,72.9,30.05,SE,128,0.0,4.0,91,0.00,,,0.00,345.0,meteohub,2013-05-20 12:58:00,
2013-05-20 09:03:00,75.9,72.5,30.06,ESE,121,0.0,3.0,89,0.00,,,0.00,343.0,meteohub,2013-05-20 13:03:00,
2013-05-20 09:08:00,76.1,72.7,30.06,SSE,148,3.0,3.0,89,0.00,,,0.00,239.0,meteohub,2013-05-20 13:08:00,
2013-05-20 09:13:00,75.9,72.1,30.06,SSE,155,1.0,13.0,88,0.00,,,0.00,373.0,meteohub,2013-05-20 13:13:00,
2013-05-20 09:18:00,76.3,72.5,30.06,SSE,163,1.0,13.0,88,0.00,,,0.00,309.0,meteohub,2013-05-20 13:18:00,
2013-05-20 09:23:00,76.5,72.7,30.06,SSE,148,0.0,13.0,88,0.00,,,0.00,348.0,meteohub,2013-05-20 13:23:00,
2013-05-20 09:28:00,76.6,72.9,30.07,SE,146,0.0,8.0,88,0.00,,,0.00,399.0,meteohub,2013-05-20 13:28:00,
2013-05-20 09:33:00,77.0,72.5,30.07,SE,126,0.0,5.0,86,0.00,,,0.00,330.0,meteohub,2013-05-20 13:33:00,
2013-05-20 09:38:00,77.2,72.7,30.07,ESE,103,3.0,5.0,86,0.00,,,0.00,262.0,meteohub,2013-05-20 13:38:00,
2013-05-20 09:43:00,77.2,73.0,30.07,SE,132,0.0,8.0,87,0.00,,,0.00,323.0,meteohub,2013-05-20 13:43:00,
2013-05-20 09:48:00,77.4,72.9,30.07,SSE,168,3.0,9.0,86,0.00,,,0.00,290.0,meteohub,2013-05-20 13:48:00,
2013-05-20 09:53:00,77.2,72.3,30.08,SE,142,3.0,9.0,85,0.00,,,0.00,322.0,meteohub,2013-05-20 13:53:00,
2013-05-20 09:58:00,77.2,72.7,30.07,South,178,0.0,8.0,86,0.00,,,0.00,264.0,meteohub,2013-05-20 13:58:00,
2013-05-20 10:03:00,77.2,73.0,30.07,South,179,0.0,8.0,87,0.00,,,0.00,274.0,meteohub,2013-05-20 14:03:00,
2013-05-20 10:08:00,77.4,72.9,30.07,South,187,1.0,8.0,86,0.00,,,0.00,299.0,meteohub,2013-05-20 14:08:00,
2013-05-20 10:14:00,77.5,73.0,30.08,SSE,156,0.0,8.0,86,0.00,,,0.00,332.0,meteohub,2013-05-20 14:14:00,
2013-05-20 10:19:00,77.5,73.0,30.07,ESE,103,5.0,5.0,86,0.00,,,0.00,362.0,meteohub,2013-05-20 14:19:00,
2013-05-20 10:24:00,78.1,73.6,30.07,SE,138,2.0,6.0,86,0.00,,,0.00,381.0,meteohub,2013-05-20 14:24:00,
2013-05-20 10:29:00,78.3,73.0,30.07,ESE,106,0.0,6.0,84,0.00,,,0.00,346.0,meteohub,2013-05-20 14:29:00,
2013-05-20 10:34:00,78.4,73.6,30.08,East,95,0.0,6.0,85,0.00,,,0.00,190.0,meteohub,2013-05-20 14:34:00,
2013-05-20 10:39:00,78.1,72.9,30.08,South,171,0.0,5.0,84,0.00,,,0.00,167.0,meteohub,2013-05-20 14:39:00,
2013-05-20 10:44:00,77.7,72.9,30.08,SSE,163,0.0,5.0,85,0.00,,,0.00,209.0,meteohub,2013-05-20 14:44:00,
2013-05-20 10:49:00,77.7,72.9,30.08,ESE,121,0.0,5.0,85,0.00,,,0.00,241.0,meteohub,2013-05-20 14:49:00,
2013-05-20 10:54:00,77.7,72.9,30.08,SE,133,2.0,5.0,85,0.00,,,0.00,258.0,meteohub,2013-05-20 14:54:00,
2013-05-20 10:59:00,77.7,72.5,30.08,SSE,156,1.0,5.0,84,0.00,,,0.00,285.0,meteohub,2013-05-20 14:59:00,
2013-05-20 11:04:00,78.1,73.2,30.08,ESE,102,0.0,5.0,85,0.00,,,0.00,269.0,meteohub,2013-05-20 15:04:00,
2013-05-20 11:09:00,78.3,73.0,30.08,SSE,167,1.0,5.0,84,0.00,,,0.00,334.0,meteohub,2013-05-20 15:09:00,
2013-05-20 11:14:00,78.6,73.4,30.08,ESE,112,0.0,5.0,84,0.00,,,0.00,281.0,meteohub,2013-05-20 15:14:00,
2013-05-20 11:19:00,78.6,73.0,30.08,ESE,112,0.0,5.0,83,0.00,,,0.00,135.0,meteohub,2013-05-20 15:19:00,
2013-05-20 11:24:00,78.6,73.4,30.08,SSE,148,0.0,5.0,84,0.00,,,0.00,125.0,meteohub,2013-05-20 15:24:00,
2013-05-20 11:29:00,78.4,73.2,30.07,SSW,205,0.0,4.0,84,0.00,,,0.00,195.0,meteohub,2013-05-20 15:29:00,
2013-05-20 11:34:00,78.3,72.7,30.07,SSE,150,1.0,3.0,83,0.00,,,0.00,186.0,meteohub,2013-05-20 15:34:00,
2013-05-20 11:39:00,78.4,72.9,30.07,SSE,151,0.0,4.0,83,0.00,,,0.00,148.0,meteohub,2013-05-20 15:39:00,
2013-05-20 11:44:00,78.4,73.2,30.07,SSE,151,0.0,4.0,84,0.00,,,0.00,100.0,meteohub,2013-05-20 15:44:00,
2013-05-20 11:49:00,78.3,73.4,30.07,ESE,109,1.0,4.0,85,0.00,,,0.00,113.0,meteohub,2013-05-20 15:49:00,
2013-05-20 11:54:00,77.9,73.4,30.07,SE,134,0.0,5.0,86,0.00,,,0.00,141.0,meteohub,2013-05-20 15:54:00,
2013-05-20 11:59:00,77.9,73.4,30.07,SW,226,0.0,5.0,86,0.00,,,0.00,93.0,meteohub,2013-05-20 15:59:00,
2013-05-20 12:04:00,77.7,73.2,30.07,South,173,0.0,5.0,86,0.00,,,0.00,91.0,meteohub,2013-05-20 16:04:00,
2013-05-20 12:09:00,77.7,73.2,30.07,SE,146,0.0,4.0,86,0.00,,,0.00,123.0,meteohub,2013-05-20 16:09:00,
2013-05-20 12:14:00,77.5,73.0,30.06,SE,146,2.0,5.0,86,0.00,,,0.00,121.0,meteohub,2013-05-20 16:14:00,
2013-05-20 12:19:00,77.7,73.6,30.06,SE,145,0.0,5.0,87,0.00,,,0.00,142.0,meteohub,2013-05-20 16:19:00,
2013-05-20 12:24:00,77.7,73.2,30.06,ESE,120,7.0,7.0,86,0.00,,,0.00,178.0,meteohub,2013-05-20 16:24:00,
2013-05-20 12:29:00,77.9,73.4,30.06,East,101,1.0,3.0,86,0.00,,,0.00,204.0,meteohub,2013-05-20 16:29:00,
2013-05-20 12:34:00,77.7,73.2,30.06,SE,129,1.0,7.0,86,0.00,,,0.00,178.0,meteohub,2013-05-20 16:34:00,
2013-05-20 12:39:00,77.7,73.2,30.05,SE,136,1.0,8.0,86,0.00,,,0.00,153.0,meteohub,2013-05-20 16:39:00,
2013-05-20 12:44:00,77.7,73.6,30.05,SE,143,0.0,8.0,87,0.00,,,0.00,130.0,meteohub,2013-05-20 16:44:00,
2013-05-20 12:49:00,77.5,73.4,30.05,ESE,109,0.0,8.0,87,0.00,,,0.00,105.0,meteohub,2013-05-20 16:49:00,
2013-05-20 12:54:00,77.2,71.6,30.05,SSE,168,2.0,6.0,83,0.00,,,0.00,116.0,meteohub,2013-05-20 16:54:00,
2013-05-20 12:59:00,75.4,70.5,30.05,SE,142,2.0,9.0,85,0.00,,,0.00,125.0,meteohub,2013-05-20 16:59:00,
2013-05-20 13:04:00,73.6,70.2,30.05,SE,139,1.0,9.0,89,0.02,,,0.02,158.0,meteohub,2013-05-20 17:04:00,
2013-05-20 13:09:00,72.5,69.8,30.05,SSW,194,4.0,9.0,91,0.03,,,0.03,162.0,meteohub,2013-05-20 17:09:00,
2013-05-20 13:14:00,71.8,69.3,30.05,SSE,160,0.0,8.0,92,0.03,,,0.03,160.0,meteohub,2013-05-20 17:14:00,
2013-05-20 13:19:00,71.4,68.9,30.05,SSE,160,1.0,7.0,92,0.04,,,0.04,151.0,meteohub,2013-05-20 17:19:00,
2013-05-20 13:24:00,71.2,69.1,30.05,SSE,160,0.0,7.0,93,0.04,,,0.04,149.0,meteohub,2013-05-20 17:24:00,
2013-05-20 13:29:00,71.4,69.6,30.05,SSE,160,0.0,2.0,94,0.04,,,0.04,151.0,meteohub,2013-05-20 17:29:00,
2013-05-20 13:34:00,72.0,70.2,30.05,SSE,160,0.0,2.0,94,0.05,,,0.05,151.0,meteohub,2013-05-20 17:34:00,
2013-05-20 13:39:00,72.3,70.5,30.05,SSE,160,0.0,2.0,94,0.05,,,0.05,156.0,meteohub,2013-05-20 17:39:00,
2013-05-20 13:44:00,72.9,71.4,30.05,SSE,160,0.0,1.0,95,0.05,,,0.05,167.0,meteohub,2013-05-20 17:44:00,
2013-05-20 13:49:00,73.2,71.4,30.05,SSE,160,0.0,0.0,94,0.05,,,0.05,186.0,meteohub,2013-05-20 17:49:00,
2013-05-20 13:54:00,73.6,71.8,30.05,SSE,160,0.0,1.0,94,0.05,,,0.05,213.0,meteohub,2013-05-20 17:54:00,
2013-05-20 13:59:00,73.6,71.4,30.05,SSE,160,0.0,1.0,93,0.04,,,0.05,239.0,meteohub,2013-05-20 17:59:00,
2013-05-20 14:04:00,73.9,71.8,30.04,SSE,160,0.0,2.0,93,0.03,,,0.05,269.0,meteohub,2013-05-20 18:04:00,
2013-05-20 14:09:00,74.3,72.5,30.04,SSE,160,0.0,2.0,94,0.02,,,0.05,302.0,meteohub,2013-05-20 18:09:00,
2013-05-20 14:14:00,74.7,72.5,30.04,SSE,160,0.0,2.0,93,0.01,,,0.05,343.0,meteohub,2013-05-20 18:14:00,
2013-05-20 14:19:00,75.2,72.7,30.04,SSE,160,0.0,1.0,92,0.01,,,0.05,371.0,meteohub,2013-05-20 18:19:00,
2013-05-20 14:24:00,75.6,73.0,30.04,SSE,160,0.0,1.0,92,0.01,,,0.05,381.0,meteohub,2013-05-20 18:24:00,
2013-05-20 14:29:00,75.9,73.0,30.04,SSE,160,1.0,1.0,91,0.00,,,0.05,388.0,meteohub,2013-05-20 18:29:00,
2013-05-20 14:34:00,76.5,73.9,30.04,SSE,160,0.0,1.0,92,0.00,,,0.05,401.0,meteohub,2013-05-20 18:34:00,
2013-05-20 14:39:00,76.8,73.9,30.04,SSE,160,0.0,1.0,91,0.00,,,0.05,424.0,meteohub,2013-05-20 18:39:00,
2013-05-20 14:44:00,77.5,74.7,30.04,SSE,160,2.0,2.0,91,0.00,,,0.05,432.0,meteohub,2013-05-20 18:44:00,
2013-05-20 14:49:00,77.5,73.0,30.04,SSE,161,0.0,2.0,86,0.00,,,0.05,443.0,meteohub,2013-05-20 18:49:00,
2013-05-20 14:54:00,77.7,73.2,30.04,SSE,161,0.0,2.0,86,0.00,,,0.05,459.0,meteohub,2013-05-20 18:54:00,
2013-05-20 14:59:00,78.1,73.6,30.04,SSE,163,0.0,2.0,86,0.00,,,0.05,424.0,meteohub,2013-05-20 18:59:00,
2013-05-20 15:04:00,78.3,73.4,30.04,SE,143,1.0,3.0,85,0.00,,,0.05,357.0,meteohub,2013-05-20 19:04:00,
2013-05-20 15:09:00,78.4,73.9,30.04,SSE,149,0.0,3.0,86,0.00,,,0.05,320.0,meteohub,2013-05-20 19:09:00,
2013-05-20 15:14:00,78.4,73.9,30.04,SSE,149,0.0,2.0,86,0.00,,,0.05,306.0,meteohub,2013-05-20 19:14:00,
2013-05-20 15:19:00,78.4,73.9,30.03,SSE,149,0.0,2.0,86,0.00,,,0.05,316.0,meteohub,2013-05-20 19:19:00,
2013-05-20 15:24:00,78.6,73.8,30.04,SSE,149,0.0,1.0,85,0.00,,,0.05,304.0,meteohub,2013-05-20 19:24:00,
2013-05-20 15:29:00,78.6,74.1,30.03,SSE,149,0.0,2.0,86,0.00,,,0.05,332.0,meteohub,2013-05-20 19:29:00,
2013-05-20 15:34:00,79.0,74.1,30.03,SSE,149,0.0,2.0,85,0.00,,,0.05,362.0,meteohub,2013-05-20 19:34:00,
2013-05-20 15:39:00,79.0,74.1,30.03,ESE,118,0.0,2.0,85,0.00,,,0.05,357.0,meteohub,2013-05-20 19:39:00,
2013-05-20 15:44:00,79.2,74.3,30.02,ENE,78,0.0,4.0,85,0.00,,,0.05,371.0,meteohub,2013-05-20 19:44:00,
2013-05-20 15:49:00,79.3,74.5,30.02,SSE,157,0.0,4.0,85,0.00,,,0.05,371.0,meteohub,2013-05-20 19:49:00,
2013-05-20 15:54:00,79.3,74.1,30.02,ESE,119,1.0,5.0,84,0.00,,,0.05,378.0,meteohub,2013-05-20 19:54:00,
2013-05-20 15:59:00,79.3,74.1,30.02,SE,126,0.0,5.0,84,0.00,,,0.05,346.0,meteohub,2013-05-20 19:59:00,
2013-05-20 16:04:00,79.3,74.1,30.02,SE,128,0.0,5.0,84,0.00,,,0.05,318.0,meteohub,2013-05-20 20:04:00,
2013-05-20 16:09:00,79.5,74.7,30.01,SSE,165,0.0,4.0,85,0.00,,,0.05,304.0,meteohub,2013-05-20 20:09:00,
2013-05-20 16:14:00,79.5,74.3,30.01,SSE,165,0.0,3.0,84,0.00,,,0.05,297.0,meteohub,2013-05-20 20:14:00,
2013-05-20 16:19:00,79.7,74.5,30.01,SSE,163,0.0,3.0,84,0.00,,,0.05,332.0,meteohub,2013-05-20 20:19:00,
2013-05-20 16:24:00,79.7,74.1,30.01,SE,134,2.0,2.0,83,0.00,,,0.05,355.0,meteohub,2013-05-20 20:24:00,
2013-05-20 16:29:00,79.5,74.3,30.01,SE,140,0.0,6.0,84,0.00,,,0.05,258.0,meteohub,2013-05-20 20:29:00,
2013-05-20 16:34:00,79.5,74.3,30.01,SE,129,2.0,6.0,84,0.00,,,0.05,253.0,meteohub,2013-05-20 20:34:00,
2013-05-20 16:39:00,79.3,74.1,30.00,SE,134,0.0,6.0,84,0.00,,,0.05,330.0,meteohub,2013-05-20 20:39:00,
2013-05-20 16:44:00,79.3,74.1,30.00,ESE,122,1.0,3.0,84,0.00,,,0.05,406.0,meteohub,2013-05-20 20:44:00,
2013-05-20 16:49:00,79.3,73.8,30.01,South,184,0.0,4.0,83,0.00,,,0.05,376.0,meteohub,2013-05-20 20:49:00,
2013-05-20 16:54:00,79.5,74.3,30.01,SSE,154,0.0,4.0,84,0.00,,,0.05,304.0,meteohub,2013-05-20 20:54:00,
2013-05-20 16:59:00,79.5,73.9,30.00,SSE,168,0.0,4.0,83,0.00,,,0.05,272.0,meteohub,2013-05-20 20:59:00,
2013-05-20 17:04:00,79.5,73.9,30.00,ESE,110,0.0,4.0,83,0.00,,,0.05,251.0,meteohub,2013-05-20 21:04:00,
2013-05-20 17:09:00,79.3,73.8,30.00,ESE,109,0.0,4.0,83,0.00,,,0.05,236.0,meteohub,2013-05-20 21:09:00,
2013-05-20 17:14:00,79.2,73.9,30.00,ESE,109,0.0,3.0,84,0.00,,,0.05,216.0,meteohub,2013-05-20 21:14:00,
2013-05-20 17:19:00,78.6,73.8,30.00,SSE,155,1.0,3.0,85,0.00,,,0.05,193.0,meteohub,2013-05-20 21:19:00,
2013-05-20 17:24:00,78.6,73.8,30.00,SSE,150,0.0,6.0,85,0.00,,,0.05,172.0,meteohub,2013-05-20 21:24:00,
2013-05-20 17:29:00,78.3,73.4,30.00,SSE,162,4.0,6.0,85,0.00,,,0.05,176.0,meteohub,2013-05-20 21:29:00,
2013-05-20 17:34:00,78.1,73.2,30.00,SE,138,0.0,8.0,85,0.00,,,0.05,171.0,meteohub,2013-05-20 21:34:00,
2013-05-20 17:39:00,77.7,72.9,30.00,SE,144,0.0,8.0,85,0.00,,,0.05,165.0,meteohub,2013-05-20 21:39:00,
2013-05-20 17:44:00,77.5,72.7,30.00,SE,127,0.0,8.0,85,0.00,,,0.05,158.0,meteohub,2013-05-20 21:44:00,
2013-05-20 17:49:00,77.5,73.0,30.00,SSW,205,0.0,7.0,86,0.00,,,0.05,146.0,meteohub,2013-05-20 21:49:00,
2013-05-20 17:54:00,77.5,73.0,30.00,SE,143,0.0,7.0,86,0.00,,,0.05,139.0,meteohub,2013-05-20 21:54:00,
2013-05-20 17:59:00,77.5,73.0,30.00,ENE,64,2.0,5.0,86,0.00,,,0.05,132.0,meteohub,2013-05-20 21:59:00,
2013-05-20 18:04:00,77.4,72.9,30.00,South,176,0.0,5.0,86,0.00,,,0.05,125.0,meteohub,2013-05-20 22:04:00,
2013-05-20 18:09:00,77.2,72.7,30.00,SE,132,0.0,4.0,86,0.00,,,0.05,118.0,meteohub,2013-05-20 22:09:00,
2013-05-20 18:14:00,77.2,72.7,30.00,SSE,158,0.0,6.0,86,0.00,,,0.05,107.0,meteohub,2013-05-20 22:14:00,
2013-05-20 18:19:00,77.0,72.9,30.00,ESE,122,0.0,6.0,87,0.00,,,0.05,98.0,meteohub,2013-05-20 22:19:00,
2013-05-20 18:24:00,77.0,72.9,30.00,SE,134,3.0,5.0,87,0.00,,,0.05,91.0,meteohub,2013-05-20 22:24:00,
2013-05-20 18:29:00,76.8,72.7,30.00,SSE,167,0.0,5.0,87,0.00,,,0.05,86.0,meteohub,2013-05-20 22:29:00,
2013-05-20 18:34:00,76.6,72.9,30.00,ESE,121,0.0,7.0,88,0.00,,,0.05,81.0,meteohub,2013-05-20 22:34:00,
2013-05-20 18:39:00,76.6,72.9,30.00,SSW,194,1.0,7.0,88,0.00,,,0.05,74.0,meteohub,2013-05-20 22:39:00,
2013-05-20 18:44:00,76.6,72.9,30.00,ESE,111,3.0,7.0,88,0.00,,,0.05,67.0,meteohub,2013-05-20 22:44:00,
2013-05-20 18:49:00,76.5,72.7,30.00,East,84,0.0,6.0,88,0.00,,,0.05,62.0,meteohub,2013-05-20 22:49:00,
2013-05-20 18:54:00,76.3,72.5,30.00,East,80,0.0,7.0,88,0.00,,,0.05,56.0,meteohub,2013-05-20 22:54:00,
2013-05-20 18:59:00,76.3,72.5,30.00,SSE,159,0.0,7.0,88,0.00,,,0.05,53.0,meteohub,2013-05-20 22:59:00,
2013-05-20 19:04:00,76.1,72.3,30.00,ESE,121,0.0,7.0,88,0.00,,,0.05,47.0,meteohub,2013-05-20 23:04:00,
2013-05-20 19:09:00,76.1,72.3,30.00,SSE,153,0.0,6.0,88,0.00,,,0.05,44.0,meteohub,2013-05-20 23:09:00,
2013-05-20 19:14:00,75.9,72.1,30.00,SE,141,1.0,6.0,88,0.00,,,0.05,40.0,meteohub,2013-05-20 23:14:00,
2013-05-20 19:19:00,75.9,72.1,30.00,SE,140,0.0,6.0,88,0.00,,,0.05,39.0,meteohub,2013-05-20 23:19:00,
2013-05-20 19:24:00,75.9,72.5,30.00,SE,140,0.0,6.0,89,0.00,,,0.05,37.0,meteohub,2013-05-20 23:24:00,
2013-05-20 19:29:00,75.7,72.3,30.01,East,90,0.0,6.0,89,0.00,,,0.05,35.0,meteohub,2013-05-20 23:29:00,
2013-05-20 19:34:00,75.7,72.7,30.01,East,93,0.0,7.0,90,0.00,,,0.05,32.0,meteohub,2013-05-20 23:34:00,
2013-05-20 19:39:00,75.6,72.5,30.01,ENE,78,0.0,7.0,90,0.00,,,0.05,26.0,meteohub,2013-05-20 23:39:00,
2013-05-20 19:44:00,75.6,72.5,30.01,ENE,77,0.0,7.0,90,0.00,,,0.05,21.0,meteohub,2013-05-20 23:44:00,
2013-05-20 19:49:00,75.6,72.5,30.01,SE,132,0.0,5.0,90,0.00,,,0.05,14.0,meteohub,2013-05-20 23:49:00,
2013-05-20 19:54:00,75.4,72.3,30.01,SE,132,1.0,5.0,90,0.00,,,0.05,9.0,meteohub,2013-05-20 23:54:00,
2013-05-20 19:59:00,75.4,72.5,30.02,SSE,153,1.0,5.0,91,0.00,,,0.05,7.0,meteohub,2013-05-20 23:59:00,
2013-05-20 20:04:00,75.4,72.5,30.02,SSE,153,0.0,4.0,91,0.00,,,0.05,5.0,meteohub,2013-05-21 00:04:00,
2013-05-20 20:09:00,75.2,72.7,30.02,South,188,0.0,4.0,92,0.00,,,0.05,0.0,meteohub,2013-05-21 00:09:00,
2013-05-20 20:14:00,75.0,72.5,30.02,ESE,105,0.0,4.0,92,0.00,,,0.05,0.0,meteohub,2013-05-21 00:14:00,
2013-05-20 20:19:00,75.0,72.5,30.02,ESE,105,0.0,4.0,92,0.00,,,0.05,0.0,meteohub,2013-05-21 00:19:00,
2013-05-20 20:24:00,75.0,72.5,30.02,SE,129,1.0,4.0,92,0.00,,,0.05,0.0,meteohub,2013-05-21 00:24:00,
2013-05-20 20:29:00,74.8,72.3,30.02,SE,129,0.0,4.0,92,0.00,,,0.05,0.0,meteohub,2013-05-21 00:29:00,
2013-05-20 20:35:00,74.8,72.7,30.02,SE,136,0.0,4.0,93,0.00,,,0.05,0.0,meteohub,2013-05-21 00:35:00,
2013-05-20 20:40:00,74.8,72.7,30.02,SE,136,4.0,4.0,93,0.00,,,0.05,0.0,meteohub,2013-05-21 00:40:00,
2013-05-20 20:45:00,74.8,72.7,30.02,ESE,103,0.0,4.0,93,0.00,,,0.05,0.0,meteohub,2013-05-21 00:45:00,
2013-05-20 20:50:00,74.7,72.1,30.02,ESE,117,0.0,4.0,92,0.00,,,0.05,0.0,meteohub,2013-05-21 00:50:00,
2013-05-20 20:55:00,74.7,72.1,30.02,SE,136,0.0,4.0,92,0.00,,,0.05,0.0,meteohub,2013-05-21 00:55:00,
2013-05-20 21:00:00,74.7,72.1,30.02,SE,138,0.0,5.0,92,0.00,,,0.05,0.0,meteohub,2013-05-21 01:00:00,
2013-05-20 21:05:00,74.5,72.3,30.02,SE,138,0.0,5.0,93,0.00,,,0.05,0.0,meteohub,2013-05-21 01:05:00,
2013-05-20 21:10:00,74.5,72.3,30.03,SE,138,0.0,5.0,93,0.00,,,0.05,0.0,meteohub,2013-05-21 01:10:00,
2013-05-20 21:15:00,74.3,72.1,30.03,SE,138,0.0,2.0,93,0.00,,,0.05,0.0,meteohub,2013-05-21 01:15:00,
2013-05-20 21:20:00,74.1,72.0,30.03,SE,138,0.0,2.0,93,0.00,,,0.05,0.0,meteohub,2013-05-21 01:20:00,
2013-05-20 21:25:00,74.1,72.0,30.04,SE,138,0.0,1.0,93,0.00,,,0.05,0.0,meteohub,2013-05-21 01:25:00,
2013-05-20 21:30:00,74.1,72.0,30.04,SE,138,0.0,1.0,93,0.00,,,0.05,0.0,meteohub,2013-05-21 01:30:00,
2013-05-20 21:35:00,73.9,71.8,30.04,SE,138,0.0,1.0,93,0.00,,,0.05,0.0,meteohub,2013-05-21 01:35:00,
2013-05-20 21:40:00,73.9,72.1,30.04,SE,138,0.0,1.0,94,0.00,,,0.05,0.0,meteohub,2013-05-21 01:40:00,
2013-05-20 21:45:00,73.9,72.1,30.04,SE,138,0.0,0.0,94,0.00,,,0.05,0.0,meteohub,2013-05-21 01:45:00,
2013-05-20 21:50:00,73.8,72.0,30.04,SE,138,0.0,0.0,94,0.00,,,0.05,0.0,meteohub,2013-05-21 01:50:00,
2013-05-20 21:55:00,73.8,72.0,30.04,SE,138,0.0,0.0,94,0.00,,,0.05,0.0,meteohub,2013-05-21 01:55:00,
2013-05-20 22:00:00,73.8,72.0,30.04,SE,138,0.0,0.0,94,0.00,,,0.05,0.0,meteohub,2013-05-21 02:00:00,
2013-05-20 22:05:00,73.6,71.8,30.05,SE,138,0.0,0.0,94,0.00,,,0.05,0.0,meteohub,2013-05-21 02:05:00,
2013-05-20 22:10:00,73.6,71.8,30.05,SE,138,0.0,0.0,94,0.00,,,0.05,0.0,meteohub,2013-05-21 02:10:00,
2013-05-20 22:15:00,73.4,72.0,30.05,SE,138,0.0,0.0,95,0.00,,,0.05,0.0,meteohub,2013-05-21 02:15:00,
2013-05-20 22:20:00,73.2,71.8,30.05,SE,138,0.0,0.0,95,0.00,,,0.05,0.0,meteohub,2013-05-21 02:20:00,
2013-05-20 22:25:00,73.0,71.6,30.05,SE,138,0.0,0.0,95,0.00,,,0.05,0.0,meteohub,2013-05-21 02:25:00,
2013-05-20 22:30:00,73.0,71.6,30.04,SE,138,0.0,0.0,95,0.00,,,0.05,0.0,meteohub,2013-05-21 02:30:00,
2013-05-20 22:35:00,72.9,71.4,30.04,SE,138,0.0,0.0,95,0.00,,,0.05,0.0,meteohub,2013-05-21 02:35:00,
2013-05-20 22:40:00,72.9,71.4,30.04,SE,138,0.0,0.0,95,0.00,,,0.05,0.0,meteohub,2013-05-21 02:40:00,
2013-05-20 22:45:00,72.9,71.6,30.04,SE,138,0.0,1.0,96,0.00,,,0.05,0.0,meteohub,2013-05-21 02:45:00,
2013-05-20 22:50:00,73.0,71.8,30.04,NE,44,0.0,1.0,96,0.00,,,0.05,0.0,meteohub,2013-05-21 02:50:00,
2013-05-20 22:55:00,73.0,71.8,30.04,NE,44,0.0,1.0,96,0.00,,,0.05,0.0,meteohub,2013-05-21 02:55:00,
2013-05-20 23:00:00,73.0,71.8,30.03,NE,44,0.0,1.0,96,0.00,,,0.05,0.0,meteohub,2013-05-21 03:00:00,
2013-05-20 23:05:00,73.0,71.8,30.03,NE,44,0.0,1.0,96,0.00,,,0.05,0.0,meteohub,2013-05-21 03:05:00,
2013-05-20 23:10:00,73.0,71.8,30.03,NE,47,0.0,1.0,96,0.00,,,0.05,0.0,meteohub,2013-05-21 03:10:00,
2013-05-20 23:15:00,73.0,71.8,30.02,NE,55,2.0,2.0,96,0.00,,,0.05,0.0,meteohub,2013-05-21 03:15:00,
2013-05-20 23:20:00,73.0,71.8,30.02,ENE,63,0.0,3.0,96,0.00,,,0.05,0.0,meteohub,2013-05-21 03:20:00,
2013-05-20 23:25:00,73.0,71.8,30.01,South,169,2.0,3.0,96,0.00,,,0.05,0.0,meteohub,2013-05-21 03:25:00,
2013-05-20 23:30:00,73.0,71.6,30.00,South,173,0.0,4.0,95,0.00,,,0.05,0.0,meteohub,2013-05-21 03:30:00,
2013-05-20 23:35:00,73.0,71.6,30.00,SSE,159,0.0,4.0,95,0.00,,,0.05,0.0,meteohub,2013-05-21 03:35:00,
2013-05-20 23:40:00,73.0,71.6,30.00,SSE,154,0.0,6.0,95,0.00,,,0.05,0.0,meteohub,2013-05-21 03:40:00,
2013-05-20 23:45:00,73.0,71.6,29.99,SE,136,0.0,6.0,95,0.00,,,0.05,0.0,meteohub,2013-05-21 03:45:00,
2013-05-20 23:50:00,73.0,71.6,29.99,SE,133,0.0,6.0,95,0.00,,,0.05,0.0,meteohub,2013-05-21 03:50:00,
2013-05-20 23:55:00,73.0,71.6,29.98,SE,142,2.0,7.0,95,0.00,,,0.05,0.0,meteohub,2013-05-21 03:55:00,